AUA50E LIML-LOWW

Flight info

Callsign AUA50E
Flight time 0h 55m
Altitude 34000
Route NESTI DCT ARALD/N0367F330 DCT ABTAN
Aircraft E195/M-SDE2E3FGIJ1RWY/LB1

Departure

Time 2026-04-20 17:52
Airport Milano Linate Airport (LIML)

Arrival

Time 2026-04-20 18:47
Airport Vienna International Airport (LOWW)
Time Latitude Longitude Altitude Speed Heading
2026-04-20 17:24 45.45774 9.27894 359 ft 0 kts 90°
2026-04-20 17:43 45.45774 9.27914 362 ft 6 kts 90°
2026-04-20 17:43 45.45752 9.27981 359 ft 8 kts 162°
2026-04-20 17:43 45.45679 9.27981 359 ft 13 kts 180°
2026-04-20 17:44 45.45592 9.27980 359 ft 11 kts 180°
2026-04-20 17:44 45.45529 9.27979 359 ft 6 kts 180°
2026-04-20 17:44 45.45518 9.27979 359 ft 0 kts 180°
2026-04-20 17:44 45.45517 9.27979 359 ft 0 kts 180°
2026-04-20 17:45 45.45477 9.27979 359 ft 12 kts 180°
2026-04-20 17:45 45.45373 9.27967 359 ft 15 kts 200°
2026-04-20 17:45 45.45278 9.27899 365 ft 16 kts 207°
2026-04-20 17:46 45.45173 9.27870 362 ft 16 kts 178°
2026-04-20 17:46 45.45065 9.27882 359 ft 15 kts 176°
2026-04-20 17:46 45.44966 9.27894 365 ft 14 kts 170°
2026-04-20 17:46 45.44874 9.27931 363 ft 14 kts 165°
2026-04-20 17:47 45.44777 9.27946 361 ft 14 kts 176°
2026-04-20 17:47 45.44678 9.27957 359 ft 14 kts 175°
2026-04-20 17:47 45.44577 9.27968 363 ft 15 kts 175°
2026-04-20 17:47 45.44473 9.27979 362 ft 15 kts 175°
2026-04-20 17:48 45.44367 9.27991 359 ft 15 kts 175°
2026-04-20 17:48 45.44259 9.28002 361 ft 16 kts 176°
2026-04-20 17:48 45.44150 9.28014 359 ft 16 kts 175°
2026-04-20 17:48 45.44038 9.28026 363 ft 16 kts 175°
2026-04-20 17:49 45.43926 9.28039 359 ft 16 kts 175°
2026-04-20 17:49 45.43811 9.28051 365 ft 17 kts 176°
2026-04-20 17:49 45.43696 9.28063 359 ft 17 kts 176°
2026-04-20 17:49 45.43579 9.28075 361 ft 17 kts 176°
2026-04-20 17:50 45.43476 9.28076 364 ft 14 kts 201°
2026-04-20 17:50 45.43443 9.27958 359 ft 13 kts 265°
2026-04-20 17:50 45.43440 9.27840 366 ft 9 kts 274°
2026-04-20 17:50 45.43459 9.27820 363 ft 0 kts 354°
2026-04-20 17:51 45.43522 9.27812 364 ft 36 kts 356°
2026-04-20 17:51 45.44016 9.27759 357 ft 105 kts 356°
2026-04-20 17:51 45.44946 9.27658 365 ft 164 kts 356°
2026-04-20 17:52 45.46185 9.27515 812 ft 189 kts 356°
2026-04-20 17:52 45.47475 9.27564 1307 ft 188 kts
2026-04-20 17:52 45.48844 9.27898 1835 ft 206 kts
2026-04-20 17:52 45.50340 9.28180 2485 ft 219 kts
2026-04-20 17:53 45.51852 9.28437 3219 ft 224 kts
2026-04-20 17:53 45.53442 9.28998 3742 ft 247 kts 23°
2026-04-20 17:53 45.55023 9.30204 4254 ft 269 kts 30°
2026-04-20 17:53 45.56686 9.31517 5117 ft 276 kts 27°
2026-04-20 17:54 45.58387 9.32806 6089 ft 278 kts 27°
2026-04-20 17:54 45.60121 9.34127 7044 ft 279 kts 26°
2026-04-20 17:54 45.61814 9.35413 7918 ft 279 kts 26°
2026-04-20 17:54 45.63529 9.36743 8741 ft 282 kts 30°
2026-04-20 17:55 45.64975 9.38664 9677 ft 290 kts 55°
2026-04-20 17:55 45.65726 9.41377 10267 ft 305 kts 74°
2026-04-20 17:55 45.66178 9.44409 10752 ft 318 kts 76°
2026-04-20 17:55 45.66628 9.47566 11320 ft 329 kts 76°
2026-04-20 17:56 45.67092 9.50806 12018 ft 336 kts 76°
2026-04-20 17:56 45.67570 9.54105 12621 ft 342 kts 75°
2026-04-20 17:56 45.68061 9.57462 13413 ft 347 kts 75°
2026-04-20 17:56 45.68561 9.60872 14167 ft 353 kts 75°
2026-04-20 17:57 45.69067 9.64334 14929 ft 359 kts 75°
2026-04-20 17:57 45.69584 9.67856 15673 ft 365 kts 75°
2026-04-20 17:57 45.70107 9.71429 16401 ft 370 kts 75°
2026-04-20 17:57 45.70639 9.75062 17091 ft 376 kts 75°
2026-04-20 17:58 45.71176 9.78750 17818 ft 382 kts 75°
2026-04-20 17:58 45.71721 9.82502 18491 ft 388 kts 75°
2026-04-20 17:58 45.72275 9.86299 19159 ft 392 kts 75°
2026-04-20 17:58 45.72836 9.90141 19803 ft 395 kts 75°
2026-04-20 17:59 45.73397 9.94008 20470 ft 399 kts 75°
2026-04-20 17:59 45.73954 9.97915 21098 ft 403 kts 75°
2026-04-20 17:59 45.74511 10.01869 21639 ft 407 kts 75°
2026-04-20 17:59 45.75085 10.05865 22148 ft 412 kts 75°
2026-04-20 18:00 45.75662 10.09901 22738 ft 416 kts 75°
2026-04-20 18:00 45.76251 10.13986 23333 ft 421 kts 75°
2026-04-20 18:00 45.76838 10.18118 23849 ft 425 kts 75°
2026-04-20 18:00 45.77433 10.22285 24327 ft 430 kts 75°
2026-04-20 18:01 45.78030 10.26505 24811 ft 434 kts 75°
2026-04-20 18:01 45.78625 10.30757 25365 ft 437 kts 75°
2026-04-20 18:01 45.79230 10.35047 25853 ft 441 kts 75°
2026-04-20 18:01 45.79837 10.39378 26346 ft 445 kts 75°
2026-04-20 18:02 45.80497 10.43674 26750 ft 448 kts 69°
2026-04-20 18:02 45.81657 10.47783 27242 ft 444 kts 58°
2026-04-20 18:02 45.83019 10.51748 27732 ft 444 kts 59°
2026-04-20 18:02 45.84357 10.55753 28042 ft 448 kts 59°
2026-04-20 18:03 45.85697 10.59806 28465 ft 452 kts 59°
2026-04-20 18:03 45.87045 10.63902 28858 ft 455 kts 59°
2026-04-20 18:03 45.88392 10.68029 29443 ft 457 kts 60°
2026-04-20 18:03 45.89734 10.72159 30020 ft 455 kts 59°
2026-04-20 18:04 45.91073 10.76269 30584 ft 453 kts 59°
2026-04-20 18:04 45.92403 10.80363 31052 ft 452 kts 59°
2026-04-20 18:04 45.93726 10.84451 31499 ft 451 kts 59°
2026-04-20 18:04 45.95046 10.88534 31946 ft 449 kts 59°
2026-04-20 18:05 45.97674 10.96682 32672 ft 448 kts 59°
2026-04-20 18:05 45.98982 11.00743 33047 ft 447 kts 59°
2026-04-20 18:05 46.00283 11.04792 33451 ft 446 kts 59°
2026-04-20 18:06 46.01586 11.08847 33732 ft 447 kts 59°
2026-04-20 18:06 46.02885 11.12905 34115 ft 447 kts 59°
2026-04-20 18:06 46.05497 11.21051 34120 ft 454 kts 59°
2026-04-20 18:07 46.08144 11.29341 33975 ft 457 kts 59°
2026-04-20 18:07 46.10780 11.37624 33925 ft 454 kts 59°
2026-04-20 18:08 46.13412 11.45927 33888 ft 456 kts 59°
2026-04-20 18:08 46.16035 11.54228 33927 ft 455 kts 59°
2026-04-20 18:09 46.18665 11.62568 33917 ft 457 kts 59°
2026-04-20 18:09 46.21286 11.70902 33908 ft 456 kts 59°
2026-04-20 18:10 46.23905 11.79254 33898 ft 456 kts 59°
2026-04-20 18:10 46.26515 11.87602 33900 ft 457 kts 59°
2026-04-20 18:11 46.29098 11.95909 33909 ft 457 kts 60°
2026-04-20 18:11 46.31691 12.04267 33927 ft 455 kts 59°
2026-04-20 18:12 46.34286 12.12634 33929 ft 455 kts 60°
2026-04-20 18:12 46.36867 12.21020 33899 ft 456 kts 60°
2026-04-20 18:13 46.39454 12.29413 33925 ft 457 kts 60°
2026-04-20 18:13 46.42032 12.37830 33924 ft 456 kts 60°
2026-04-20 18:14 46.44601 12.46236 33945 ft 456 kts 60°
2026-04-20 18:14 46.47166 12.54651 33928 ft 456 kts 60°
2026-04-20 18:15 46.49735 12.63071 33922 ft 454 kts 61°
2026-04-20 18:15 46.52280 12.71458 33944 ft 454 kts 61°
2026-04-20 18:16 46.54792 12.79813 33938 ft 454 kts 62°
2026-04-20 18:16 46.57310 12.88218 33959 ft 454 kts 61°
2026-04-20 18:17 46.59829 12.96647 33960 ft 454 kts 61°
2026-04-20 18:17 46.62344 13.05083 33982 ft 454 kts 61°
2026-04-20 18:18 46.64862 13.13514 33991 ft 454 kts 62°
2026-04-20 18:18 46.67224 13.22079 33992 ft 457 kts 64°
2026-04-20 18:19 46.69752 13.30516 34007 ft 452 kts 57°
2026-04-20 18:19 46.72451 13.38737 34000 ft 456 kts 64°
2026-04-20 18:20 46.74678 13.47420 33978 ft 457 kts 65°
2026-04-20 18:20 46.76893 13.56082 33978 ft 458 kts 64°
2026-04-20 18:21 46.79112 13.64801 34000 ft 458 kts 65°
2026-04-20 18:21 46.81330 13.73547 33999 ft 458 kts 65°
2026-04-20 18:22 46.83534 13.82269 33992 ft 459 kts 65°
2026-04-20 18:22 46.85739 13.91018 34024 ft 460 kts 65°
2026-04-20 18:23 46.87932 13.99766 34013 ft 458 kts 65°
2026-04-20 18:23 46.90121 14.08525 34001 ft 460 kts 64°
2026-04-20 18:24 46.92295 14.17247 34039 ft 459 kts 64°
2026-04-20 18:24 46.94485 14.26070 34004 ft 463 kts 64°
2026-04-20 18:25 46.96320 14.33488 34019 ft 462 kts 64°
2026-04-20 18:25 46.97409 14.37914 33896 ft 463 kts 64°
2026-04-20 18:25 46.98494 14.42328 33537 ft 459 kts 64°
2026-04-20 18:26 46.99572 14.46703 33238 ft 454 kts 64°
2026-04-20 18:26 47.00639 14.51044 33028 ft 453 kts 64°
2026-04-20 18:26 47.01701 14.55399 32796 ft 455 kts 64°
2026-04-20 18:26 47.02758 14.59712 32534 ft 456 kts 64°
2026-04-20 18:27 47.03825 14.64088 32250 ft 457 kts 64°
2026-04-20 18:27 47.04899 14.68479 31999 ft 458 kts 64°
2026-04-20 18:27 47.05969 14.72887 31777 ft 460 kts 64°
2026-04-20 18:27 47.07039 14.77307 31528 ft 460 kts 64°
2026-04-20 18:28 47.08112 14.81728 31271 ft 460 kts 64°
2026-04-20 18:28 47.09178 14.86150 31021 ft 461 kts 64°
2026-04-20 18:28 47.10249 14.90586 30773 ft 462 kts 64°
2026-04-20 18:28 47.11322 14.95032 30500 ft 462 kts 64°
2026-04-20 18:29 47.12383 14.99451 30626 ft 458 kts 64°
2026-04-20 18:29 47.13464 15.03912 30403 ft 467 kts 64°
2026-04-20 18:29 47.14548 15.08414 30128 ft 467 kts 64°
2026-04-20 18:29 47.15625 15.12913 29838 ft 467 kts 65°
2026-04-20 18:30 47.16696 15.17444 29009 ft 476 kts 65°
2026-04-20 18:30 47.17803 15.22086 27736 ft 485 kts 65°
2026-04-20 18:30 47.19111 15.26613 26996 ft 471 kts 53°
2026-04-20 18:30 47.20933 15.30458 26603 ft 449 kts 44°
2026-04-20 18:31 47.22804 15.34042 26307 ft 434 kts 43°
2026-04-20 18:31 47.24670 15.37455 26060 ft 424 kts 42°
2026-04-20 18:31 47.26516 15.40824 25815 ft 423 kts 42°
2026-04-20 18:31 47.28378 15.44195 25563 ft 426 kts 41°
2026-04-20 18:32 47.30249 15.47585 25340 ft 427 kts 42°
2026-04-20 18:32 47.32118 15.50972 25075 ft 426 kts 42°
2026-04-20 18:32 47.33955 15.54318 24855 ft 425 kts 42°
2026-04-20 18:32 47.35853 15.57744 24276 ft 431 kts 42°
2026-04-20 18:33 47.37734 15.61173 23291 ft 439 kts 44°
2026-04-20 18:33 47.39635 15.64715 22072 ft 439 kts 45°
2026-04-20 18:33 47.41525 15.68229 20841 ft 435 kts 45°
2026-04-20 18:33 47.43403 15.71703 19612 ft 431 kts 46°
2026-04-20 18:34 47.45252 15.75135 18818 ft 418 kts 46°
2026-04-20 18:34 47.47028 15.78413 18290 ft 399 kts 46°
2026-04-20 18:34 47.48709 15.81540 18176 ft 368 kts 46°
2026-04-20 18:34 47.50290 15.84483 17959 ft 373 kts 46°
2026-04-20 18:35 47.51904 15.87484 17214 ft 371 kts 46°
2026-04-20 18:35 47.53497 15.90444 16616 ft 364 kts 46°
2026-04-20 18:35 47.55052 15.93347 16096 ft 357 kts 47°
2026-04-20 18:35 47.56588 15.96213 15585 ft 356 kts 47°
2026-04-20 18:36 47.58121 15.99086 15076 ft 355 kts 47°
2026-04-20 18:36 47.59644 16.01943 14577 ft 351 kts 47°
2026-04-20 18:36 47.61151 16.04765 14079 ft 347 kts 47°
2026-04-20 18:36 47.62638 16.07558 13560 ft 343 kts 47°
2026-04-20 18:37 47.64107 16.10322 13007 ft 337 kts 47°
2026-04-20 18:37 47.65533 16.13012 12486 ft 326 kts 47°
2026-04-20 18:37 47.66915 16.15619 11945 ft 317 kts 47°
2026-04-20 18:37 47.68262 16.18154 11421 ft 309 kts 47°
2026-04-20 18:38 47.69574 16.20635 10907 ft 302 kts 47°
2026-04-20 18:38 47.70856 16.23067 10407 ft 297 kts 47°
2026-04-20 18:38 47.72120 16.25462 9897 ft 293 kts 47°
2026-04-20 18:38 47.73371 16.27835 9374 ft 290 kts 47°
2026-04-20 18:39 47.74609 16.30188 8838 ft 288 kts 47°
2026-04-20 18:39 47.75832 16.32513 8358 ft 283 kts 48°
2026-04-20 18:39 47.77035 16.34809 7923 ft 281 kts 48°
2026-04-20 18:39 47.78216 16.37062 7490 ft 279 kts 48°
2026-04-20 18:40 47.79405 16.39328 7064 ft 277 kts 49°
2026-04-20 18:40 47.80585 16.41581 6632 ft 275 kts 49°
2026-04-20 18:40 47.81755 16.43819 6196 ft 273 kts 49°
2026-04-20 18:40 47.82918 16.46043 5758 ft 271 kts 49°
2026-04-20 18:41 47.84070 16.48246 5316 ft 268 kts 50°
2026-04-20 18:41 47.85198 16.50426 4878 ft 264 kts 50°
2026-04-20 18:41 47.86307 16.52563 4426 ft 259 kts 49°
2026-04-20 18:41 47.87407 16.54670 3998 ft 256 kts 50°
2026-04-20 18:42 47.88477 16.56740 4022 ft 254 kts 50°
2026-04-20 18:42 47.89573 16.58829 3846 ft 261 kts 49°
2026-04-20 18:42 47.90692 16.60966 3257 ft 260 kts 50°
2026-04-20 18:42 47.91789 16.63012 3091 ft 237 kts 41°
2026-04-20 18:43 47.93111 16.64034 3416 ft 199 kts
2026-04-20 18:43 47.94500 16.64111 3578 ft 208 kts
2026-04-20 18:43 47.95941 16.64267 3285 ft 206 kts
2026-04-20 18:43 47.97348 16.64064 2940 ft 203 kts 344°
2026-04-20 18:44 47.98667 16.63396 2698 ft 197 kts 341°
2026-04-20 18:44 47.99944 16.62879 2455 ft 181 kts 347°
2026-04-20 18:44 48.01113 16.62437 2214 ft 166 kts 344°
2026-04-20 18:44 48.02169 16.61970 1995 ft 152 kts 343°
2026-04-20 18:45 48.03151 16.61556 1789 ft 146 kts 345°
2026-04-20 18:45 48.04119 16.61152 1609 ft 144 kts 343°
2026-04-20 18:45 48.05079 16.60739 1404 ft 145 kts 344°
2026-04-20 18:45 48.06052 16.60329 1210 ft 146 kts 344°
2026-04-20 18:46 48.07026 16.59920 1010 ft 144 kts 343°
2026-04-20 18:46 48.07986 16.59508 802 ft 142 kts 344°
2026-04-20 18:46 48.08935 16.59103 651 ft 141 kts 345°
2026-04-20 18:46 48.09820 16.58730 615 ft 111 kts 344°
2026-04-20 18:47 48.10369 16.58498 614 ft 56 kts 344°
2026-04-20 18:47 48.10673 16.58369 612 ft 42 kts 344°
2026-04-20 18:47 48.10910 16.58264 618 ft 20 kts 335°
2026-04-20 18:47 48.11013 16.58141 608 ft 19 kts 305°
2026-04-20 18:48 48.11069 16.57988 614 ft 15 kts 295°
2026-04-20 18:48 48.11114 16.57851 615 ft 14 kts 292°
2026-04-20 18:48 48.11156 16.57717 613 ft 14 kts 296°
2026-04-20 18:48 48.11197 16.57594 611 ft 13 kts 296°
2026-04-20 18:49 48.11237 16.57471 611 ft 12 kts 295°
2026-04-20 18:49 48.11274 16.57355 608 ft 13 kts 296°
2026-04-20 18:49 48.11316 16.57228 614 ft 14 kts 296°
2026-04-20 18:49 48.11360 16.57093 618 ft 15 kts 296°
2026-04-20 18:50 48.11405 16.56954 613 ft 15 kts 296°
2026-04-20 18:50 48.11471 16.56876 616 ft 13 kts
2026-04-20 18:50 48.11546 16.56932 615 ft 11 kts 39°
2026-04-20 18:50 48.11541 16.57038 614 ft 11 kts 115°
2026-04-20 18:51 48.11504 16.57150 608 ft 12 kts 116°
2026-04-20 18:51 48.11465 16.57268 619 ft 9 kts 116°
2026-04-20 18:51 48.11441 16.57287 616 ft 4 kts 201°
2026-04-20 18:51 48.11411 16.57266 619 ft 5 kts 205°
2026-04-20 18:52 48.11388 16.57249 613 ft 0 kts 205°